This is the latest recevied weather packets stored in our database for station/object DC1MPP-9. If no packets are shown the sender has not sent any weather packets the latest 10 day(s).
| Time | Temp. | Humidity | Pressure | Rain* | Wind** | Luminosity | Snow |
|---|---|---|---|---|---|---|---|
| 1777302687 | 20.56° C | 27% | 961 hPa | - | - | - | - |
| 1777302445 | 21.11° C | 28% | 961 hPa | - | - | - | - |
| 1777302204 | 21.11° C | 29% | 961 hPa | - | - | - | - |
| 1777301963 | 20.56° C | 28% | 961 hPa | - | - | - | - |
| 1777301722 | 20.56° C | 27% | 961 hPa | - | - | - | - |
| 1777301240 | 20.56° C | 27% | 961 hPa | - | - | - | - |
| 1777300999 | 20° C | 28% | 961 hPa | - | - | - | - |
| 1777300758 | 21.11° C | 28% | 961 hPa | - | - | - | - |
| 1777300517 | 21.11° C | 28% | 961 hPa | - | - | - | - |
| 1777300276 | 21.11° C | 26% | 961 hPa | - | - | - | - |
| 1777300035 | 20.56° C | 28% | 961 hPa | - | - | - | - |
| 1777299794 | 20.56° C | 29% | 961 hPa | - | - | - | - |
| 1777299553 | 20.56° C | 30% | 961 hPa | - | - | - | - |
| 1777299312 | 20.56° C | 29% | 961 hPa | - | - | - | - |
| 1777299071 | 20.56° C | 30% | 961 hPa | - | - | - | - |
| 1777298830 | 20.56° C | 27% | 962 hPa | - | - | - | - |
| 1777298589 | 21.11° C | 28% | 962 hPa | - | - | - | - |
| 1777298347 | 20.56° C | 29% | 962 hPa | - | - | - | - |
| 1777298107 | 21.11° C | 30% | 962 hPa | - | - | - | - |
| 1777297865 | 21.11° C | 30% | 962 hPa | - | - | - | - |
| 1777297624 | 21.11° C | 31% | 962 hPa | - | - | - | - |
| 1777297383 | 21.11° C | 29% | 962 hPa | - | - | - | - |
| 1777297142 | 21.11° C | 32% | 962 hPa | - | - | - | - |
| 1777296901 | 21.67° C | 27% | 962 hPa | - | - | - | - |
| 1777296660 | 21.67° C | 28% | 962 hPa | - | - | - | - |
* Rain since midnight (hover to see other rain measurements)
** Current wind speed in m/s (hover to see current wind gust speed)